Current Version              Previous Version:    01  02  03  04  05  06  07  08  09  10  11  12  13  14  15  16  17  18  19  20  21  22  23  24  25  26  27  28  29  30  
   31  32  33  34  35  36  37  38  39  40  41  42  43  44  45  46  47  48  49  50  51  52  53  54  55  56  57  58  59  60  

[Printable]
607
ASUS44 KEWX 271810
RWRTX
SOUTH TEXAS REGIONAL WEATHER ROUNDUP
NATIONAL WEATHER SERVICE AUSTIN/SAN ANTONIO TX
1200 PM CST TUE JAN 27 2015

NOTE: "FAIR" INDICATED FEW OR NO CLOUDS BELOW 12,000 FEET WITH NO
SIGNIFICANT WEATHER AND/OR OBSTRUCTIONS TO VISIBILITY.

* - THESE STATIONS ARE NOT NWS OR FAA STATIONS...AND ARE NOT SUBJECT
    TO NWS AND FAA QUALITY CONTROL.

TXZ171-172-183>190-271900-
TEXAS HILL COUNTRY AND EDWARDS PLATEAU

CITY           SKY/WX    TMP DP  RH WIND       PRES   REMARKS
JUNCTION       SUNNY     69  36  29 W6        30.23F
6HR MIN TEMP:  30; 6HR MAX TEMP:  69;

*LLANO         SUNNY     70  43  37 CALM      30.24F
BURNET         SUNNY     68  40  35 W5        30.23F
6HR MIN TEMP:  46; 6HR MAX TEMP:  68;

*HORSESHOE BAY SUNNY     67  39  35 CALM      30.23S
6HR MIN TEMP:  40; 6HR MAX TEMP:  67;

*KERRVILLE     SUNNY     72  38  29 W6        30.23F
6HR MIN TEMP:  33; 6HR MAX TEMP:  72;

*FREDERICKSBRG SUNNY     71  33  24 W3        30.22F
6HR MIN TEMP:  37; 6HR MAX TEMP:  72;

*ROCKSPRINGS   SUNNY     70  34  26 W3        30.28S
*BOERNE STAGE  SUNNY     77  32  19 N5        30.23F
*CASTROVILLE   SUNNY     74  37  25 CALM      30.23F
HONDO          SUNNY     73  35  25 VRB5      30.24F
6HR MIN TEMP:  37; 6HR MAX TEMP:  73;

*UVALDE        SUNNY     71  38  29 W5        30.24F
6HR MIN TEMP:  37; 6HR MAX TEMP:  71;

DEL RIO        SUNNY     67  39  35 NW12      30.23F
6HR MIN TEMP:  42; 6HR MAX TEMP:  68;

LAUGHLIN AFB   SUNNY     68  41  37 W8        30.23F
6HR MIN TEMP:  38; 6HR MAX TEMP:  68;

CARRIZO SPRGS  SUNNY     70  39  32 CALM      30.22F
$$

TXZ173-191>194-202-209-217>225-228-271900-
CENTRAL AND SOUTH CENTRAL TEXAS

CITY           SKY/WX    TMP DP  RH WIND       PRES   REMARKS
GEORGETOWN     SUNNY     73  43  33 NW6       30.19F
AUSTIN/BERGSTM MOSUNNY   72  41  32 N12       30.19F
6HR MIN TEMP:  37; 6HR MAX TEMP:  72;

AUSTIN/MABRY   SUNNY     70  41  34 NW7       30.21S
6HR MIN TEMP:  51; 6HR MAX TEMP:  71;

*AUSTIN/EXEC   SUNNY     73  39  29 N8        30.19F
*LAGO VISTA    SUNNY     71  39  32 W5        30.21F
6HR MIN TEMP:  49; 6HR MAX TEMP:  71;

SAN MARCOS     SUNNY     75  43  31 N6        30.20F
NEW BRAUNFELS  SUNNY     75  39  27 NW5       30.19F
6HR MIN TEMP:  43; 6HR MAX TEMP:  75;

RANDOLPH AFB   SUNNY     73  40  29 W7        30.20F
6HR MIN TEMP:  43; 6HR MAX TEMP:  73;

PT SAN ANTONIO SUNNY     75  37  24 W7        30.19F
6HR MIN TEMP:  42; 6HR MAX TEMP:  75;

SAN ANTONIO    MOSUNNY   74  40  29 SW6       30.21F
6HR MIN TEMP:  42; 6HR MAX TEMP:  75;

STINSON FIELD  SUNNY     74  39  28 W7        30.19F
6HR MIN TEMP:  39; 6HR MAX TEMP:  74;

*PLEASANTON    SUNNY     75  38  25 W10       30.22F
6HR MIN TEMP:  42; 6HR MAX TEMP:  75;

*LA GRANGE     SUNNY     71  44  38 N8        30.17F
6HR MIN TEMP:  47; 6HR MAX TEMP:  71;

*GIDDINGS      SUNNY     70  40  33 N6        30.22F
6HR MIN TEMP:  47; 6HR MAX TEMP:  70;

*GONZALES      SUNNY     75  42  30 NW6       30.19F
6HR MIN TEMP:  46; 6HR MAX TEMP:  75;

$$

TXZ163>164-176>182-195>201-210>213-226-227-235-271900-
SOUTHEAST TEXAS

CITY           SKY/WX    TMP DP  RH WIND       PRES   REMARKS
COLLEGE STN    SUNNY     71  42  35 NW6       30.18F
6HR MIN TEMP:  43; 6HR MAX TEMP:  71;

*BRYAN         SUNNY     71  43  36 NW3       30.19F
6HR MIN TEMP:  47; 6HR MAX TEMP:  71;

*CALDWELL      SUNNY     70  37  30 NW5       30.21F
*CROCKETT      SUNNY     75  46  35 N5        30.19F
*BRENHAM       SUNNY     70  44  38 NW6       30.18F
6HR MIN TEMP:  49; 6HR MAX TEMP:  70;

HUNTSVILLE     SUNNY     70  42  36 CALM      30.16F
6HR MIN TEMP:  50; 6HR MAX TEMP:  70;

CONROE         SUNNY     69  42  37 CALM      30.16F
6HR MIN TEMP:  41; 6HR MAX TEMP:  70;

HOUSTON BUSH   SUNNY     71  43  36 VRB3      30.16F
6HR MIN TEMP:  47; 6HR MAX TEMP:  71;

HOUSTON HOBBY  SUNNY     70  41  34 W8        30.15F
6HR MIN TEMP:  48; 6HR MAX TEMP:  70;

*HOUSTON SW AP SUNNY     70  46  42 NW7       30.16F
6HR MIN TEMP:  47; 6HR MAX TEMP:  70;

PEARLAND       SUNNY     72  41  32 NW6       30.16F
6HR MIN TEMP:  50; 6HR MAX TEMP:  72;

HOUSTON HOOKS  SUNNY     72  43  35 CALM      30.16F
6HR MIN TEMP:  46; 6HR MAX TEMP:  72;

ELLINGTON FLD  SUNNY     70  43  37 W7        30.16F
SUGAR LAND     SUNNY     71  43  36 NW8       30.16F
6HR MIN TEMP:  46; 6HR MAX TEMP:  71;

*HOUSTON EXEC    N/A    N/A N/A N/A MISG        N/A
*CLEVELAND MUN NOT AVBL
*WHARTON       SUNNY     72  44  36 W9        30.18F
6HR MIN TEMP:  46; 6HR MAX TEMP:  72;

*COLUMBUS      FAIR      71  43  37 W6        30.17F
6HR MIN TEMP:  42; 6HR MAX TEMP:  71;

$$

TXZ214>216-236>238-271900-
THE UPPER TEXAS COAST

CITY           SKY/WX    TMP DP  RH WIND       PRES   REMARKS
*ORANGE        SUNNY     69  44  39 NE5       30.16F
6HR MIN TEMP:  43; 6HR MAX TEMP:  69;

PORT ARTHUR    SUNNY     73  43  33 N6        30.14F
6HR MIN TEMP:  43; 6HR MAX TEMP:  74;

GALVESTON      SUNNY     71  45  39 W9        30.16F
6HR MIN TEMP:  50; 6HR MAX TEMP:  71;

ANGLETON       SUNNY     72  40  31 NW10      30.15F
6HR MIN TEMP:  45; 6HR MAX TEMP:  73;

*BAY CITY      SUNNY     73  43  33 W14       30.17F
PALACIOS       SUNNY     73  44  35 W14       30.18F
6HR MIN TEMP:  47; 6HR MAX TEMP:  73;

$$

TXZ229>234-239>247-271900-
TEXAS COASTAL BEND AND RIO GRANDE PLAINS

CITY           SKY/WX    TMP DP  RH WIND       PRES   REMARKS
VICTORIA       SUNNY     76  42  29 W15       30.20F
6HR MIN TEMP:  46; 6HR MAX TEMP:  76;

*BEEVILLE      SUNNY     73  40  30 W12       30.21F
ROCKPORT       SUNNY     74  36  25 W10       30.21F
6HR MIN TEMP:  49; 6HR MAX TEMP:  74;

*PORT ARANSAS  SUNNY     67  42  39 W8        30.22F
6HR MIN TEMP:  54; 6HR MAX TEMP:  67;

*PORT LAVACA   SUNNY     73  45  36 W12       30.20F
6HR MIN TEMP:  46; 6HR MAX TEMP:  73;

*INGLESIDE     SUNNY     75  35  23 W12G21    30.21F
CORPUS CHRISTI SUNNY     75  42  30 W12       30.21F
6HR MIN TEMP:  45; 6HR MAX TEMP:  75;

CORPUS NAS     SUNNY     75  42  30 W10       30.21F
6HR MIN TEMP:  48; 6HR MAX TEMP:  75;

*ROBSTOWN      SUNNY     77  34  21 W10       30.22F
ALICE          SUNNY     78  36  21 W8        30.21F
6HR MIN TEMP:  46; 6HR MAX TEMP:  78;

KINGSVILLE NAS MOSUNNY   78  39  24 SW12      30.21F
6HR MIN TEMP:  46; 6HR MAX TEMP:  78;

COTULLA        SUNNY     74  38  27 NW3       30.23F
6HR MIN TEMP:  43; 6HR MAX TEMP:  74;

*FAITH RANCH   SUNNY     72  36  26 N3        30.25S
LAREDO         SUNNY     72  41  33 CALM      30.25
$$

TXZ248>255-271900-
DEEP SOUTH TEXAS

CITY           SKY/WX    TMP DP  RH WIND       PRES   REMARKS
BROWNSVILLE    SUNNY     75  43  31 SW7       30.23F
6HR MIN TEMP:  48; 6HR MAX TEMP:  75;

PORT ISABEL    SUNNY     76  40  27 SW10      30.23F
6HR MIN TEMP:  49; 6HR MAX TEMP:  76;

*SOUTH PADRE   SUNNY    N/A N/A N/A NW6       30.22F
HARLINGEN      SUNNY     76  40  27 SW8       30.22F
6HR MIN TEMP:  48; 6HR MAX TEMP:  77;

*HEBBRONVILLE  MOSUNNY   75  36  24 SW5       30.24F
MCALLEN        MOSUNNY   75  43  31 VRB3      30.24F
6HR MIN TEMP:  49; 6HR MAX TEMP:  76;